Flag for Gaza Strip Weather past 2 weeks in Khan Yunis, Gaza Strip

Now
79 °F

Sunny.


Feels Like: 80 °F
Forecast: 58 / 85 °F
Wind: 6 mph from North

Location: El Arish

Current Time: Apr 19, 2015 at 4:47:50 PM

Latest Report: Apr 19, 2015 at 4:00 PM


Visibility: 10 mi

Pressure: 30.01 "Hg

Humidity: 48%

Dew point: 57 °F

Location of Khan YunisLocation

Historic Weather in Khan Yunis — Graph

°F

Khan Yunis temperature yesterday

Maximum temperature yesterday: 75 °F (at 1:00 PM)
Minimum temperature yesterday: 50 °F (at 5:00 AM)
Average temperature yesterday: 62 °F

Past Weeks' High & Low Weather Summary

 TemperatureHumidityPressure
High91 °F (Apr 8, 5:00 PM)100% (Apr 4, 11:00 PM)30.30 "Hg (Apr 4, 11:00 PM)
Low50 °F (Apr 5, 6:00 AM)14% (Apr 9, 12:00 AM)29.62 "Hg (Apr 8, 8:00 PM)
Average62 °F78%30.03 "Hg
* Reported Apr 4 4:00 PM — Apr 19 4:00 PM, Khan Yunis, Weather by CustomWeather, © 2015

Note: Actual official high and low records may vary slightly from our data, if they occured in-between our weather recording intervals... More about our weather records

Advertising

Khan Yunis weather history for previous 24 hours

 ConditionsComfort  
Time TempWeatherWind HumidityBarometerVisibility
4:00 PM
Sun, Apr 19
79 °FSunny.6 mph48%30.01 "Hg10 mi
3:00 PM77 °FSunny.8 mph54%30.04 "Hg10 mi
2:00 PM79 °FSunny.3 mph61%30.07 "Hg10 mi
1:00 PM77 °FSunny.3 mph51%30.07 "Hg10 mi
12:00 PM75 °FSunny.2 mph61%30.09 "Hg10 mi
11:00 AM72 °FSunny.5 mph73%30.12 "Hg10 mi
10:00 AM66 °FSunny.2 mph100%30.12 "Hg10 mi
9:00 AM64 °FSunny.6 mph100%30.12 "Hg10 mi
8:00 AM61 °FSunny.1 mph100%30.12 "Hg10 mi
7:00 AM54 °FSunny.2 mph100%30.09 "Hg10 mi
6:00 AM54 °FClear.1 mph100%30.09 "Hg10 mi
5:00 AM50 °FClear.2 mph100%30.09 "Hg10 mi
4:00 AM52 °FClear.1 mph100%30.09 "Hg10 mi
3:00 AM52 °FClear.2 mph100%30.09 "Hg10 mi
12:00 AM55 °FClear.3 mph100%30.15 "Hg10 mi
10:00 PM
Sat, Apr 18
59 °FClear.2 mph100%30.15 "Hg10 mi
9:00 PM61 °FClear.2 mph100%30.15 "Hg10 mi
8:00 PM63 °FClear.5 mph100%30.15 "Hg10 mi
7:00 PM66 °FSunny.6 mph78%30.15 "Hg10 mi
6:00 PM70 °FSunny.9 mph69%30.12 "Hg10 mi
5:00 PM72 °FSunny.9 mph61%30.12 "Hg10 mi
4:00 PM73 °FSunny.9 mph50%30.12 "Hg10 mi
Weather by CustomWeather, © 2015

See weather overviewHow to use our weather pages